Regional Weather Roundup
Issued by NWS

Home | Current Version | Previous Version | Graphics & Text | Print | Product List | Glossary On
Versions: 1 2 3 4 5 6 7 8 9 10 11 12 13 14 15 16 17 18 19 20 21 22 23 24 25 26 27 28
000
ASUS45 KTFX 210810
RWRMT
MONTANA REGIONAL WEATHER ROUNDUP
NATIONAL WEATHER SERVICE GREAT FALLS MT
100 AM MST TUE FEB 21 2017

NOTE: "FAIR" INDICATES FEW OR NO CLOUDS BELOW 12000 FEET WITH NO
SIGNIFICANT WEATHER AND/OR OBSTRUCTIONS TO VISIBILITY.

MTZ001>007-043-210900-
WEST OF THE DIVIDE

CITY           SKY/WX    TMP DP  RH WIND       PRES   REMARKS
KALISPELL      PTCLDY    36  30  79 CALM      29.68R
MISSOULA       FOG       32  32 100 SW8       29.72F VSB 1   WCI  25
BUTTE          CLOUDY    38  26  62 S10       29.73R WCI  31
MULLAN PASS    CLOUDY    26  24  92 VRB6      29.65S WCI  19
ANACONDA         N/A     43  25  49 S10G20    29.70R
DEER LODGE       N/A     36  30  80 W6        29.72S WCI  31
EUREKA           N/A     41  28  60 SE10      29.66R
HAMILTON         N/A     34  34 100 SE5       29.72S
LIBBY            N/A     36  32  87 CALM      29.65S
PLAINS           N/A     36  29  76 CALM      29.72S
RONAN            N/A     37  31  79 SE2       29.75S
$$

MTZ008-052>055-210900-
SOUTHWEST MONTANA

CITY           SKY/WX    TMP DP  RH WIND       PRES   REMARKS
BOZEMAN        CLOUDY    37  30  75 NE5       29.73F
DILLON         CLOUDY    37  30  75 S3        29.73F
W YELLOWSTONE  LGT SNOW  32  32 100 SW12G21   29.83F WCI  23
ENNIS          CLOUDY    43  30  61 S16G28    29.80F
THREE FORKS      N/A     46 -51   1 SW6       29.74S
TWIN BRIDGES     N/A     38  28  67 SE3       29.77S
$$

MTZ009-010-012-014-046-048-049-054-210900-
EAST SLOPES AND CENTRAL MONTANA

CITY           SKY/WX    TMP DP  RH WIND       PRES   REMARKS
CUT BANK       CLEAR     37  24  59 W22       29.59R WCI  26
GREAT FALLS    CLOUDY    38  29  70 SW15      29.64S WCI  29
MALMSTROM AFB  CLOUDY    40  32  70 SW20      29.64F
HELENA         CLOUDY    37  31  78 S5        29.69S
AUGUSTA          N/A     34  28  77 CALM      29.64S
BOWMANS CRNR     N/A     36  30  77 W7        29.65S WCI  31
CHOTEAU          N/A     39  28  65 SW16G23   29.61F WCI  30
CONRAD           N/A     39  30  70 S7        29.64S
POWER            N/A     35  30  80 SW16      29.61F WCI  25
RAYNESFORD     MOCLDY    31  27  84 CALM      29.66F
ULM            MOCLDY    38  30  72 MISG      29.66R
$$

MTZ011-013-016-021-045-047-050-051-210900-
NORTH CENTRAL MONTANA

CITY           SKY/WX    TMP DP  RH WIND       PRES   REMARKS
HAVRE          PTCLDY    38  33  82 S16       29.61R WCI  29
LEWISTOWN      CLEAR     33  27  78 SW14      29.68R WCI  23
N BAR RANCH      N/A     41  25  52 W7        29.70S
CHINOOK          N/A     36  34  93 W3        29.62R
DENTON           N/A     33  29  86 SE14      29.63R WCI  23
FORT BENTON      N/A     39  30  70 MISG      29.65S
GEYSER           N/A     33  29  85 SW12      29.64S WCI  24
GRASS RANGE      N/A     39  31  71 W16       29.63S WCI  30
JUDITH GAP       N/A     40  29  63 MISG      29.68R
ROY              N/A     39  31  71 MISG      29.63R
STANFORD         N/A     38  28  66 W10       29.65S WCI  31
WINIFRED         N/A     41  31  68 SW7       29.65R
$$

MTZ017>020-022>027-061-062-210900-
NORTHEAST MONTANA

CITY           SKY/WX    TMP DP  RH WIND       PRES   REMARKS
GLASGOW        CLEAR     35  33  92 S6        29.62R WCI  30
JORDAN           N/A     34  30  85 W5        29.65R
SIDNEY         CLEAR     31  27  85 SW3       29.65R
WOLF POINT     CLEAR     33  30  88 SW3       29.64R
PLENTYWOOD       N/A     36  30  80 E3        29.62R
POPLAR           N/A     37  32  81 CALM      29.64S
SCOBEY           N/A     34  26  72 SE1       29.62
$$

MTZ028>42-056>058-210900-
SOUTHCENTRAL AND SOUTHEAST MONTANA

CITY           SKY/WX    TMP DP  RH WIND       PRES   REMARKS
BAKER          MOCLDY    43  28  55 SW13      29.70R
BILLINGS       CLOUDY    47  32  56 SW10      29.70S
LIVINGSTON     CLOUDY    48  30  49 SW15G31   29.70S
MILES CITY     PTCLDY    44  30  57 W9        29.69R
BIG TIMBER     CLOUDY    46  30  53 W15       29.73S
EKALAKA          N/A     47  27  46 SW8       29.73
FORSYTH          N/A     48  30  49 SW7       29.69S
HARLOWTON      MOCLDY    39  30  71 W16       29.68F WCI  30
LAUREL           N/A     44  27  51 SW2       29.73S
$$

REGIONAL REPORTS...DAKOTAS

CITY           SKY/WX    TMP DP  RH WIND       PRES   REMARKS
WILLISTON      PTCLDY    36  31  82 CALM      29.63S
MINOT          CLOUDY    38  31  76 CALM      29.66F
DICKINSON      CLEAR     38  26  62 CALM      29.63S
BEACH            N/A    N/A N/A N/A MISG        N/A
CROSBY         CLOUDY    32  32 100 CALM      29.64F
TIOGA          CLOUDY    36  36 100 SE8       29.65S WCI  29
WATFORD CITY     N/A     30  28  93 W3        29.65S
BISMARCK       CLOUDY    37  32  82 SE9       29.70F WCI  30
GRAND FORKS    PTCLDY    31  27  85 SW8       29.73F WCI  23
FARGO          CLEAR     34  32  92 S5        29.77S
BUFFALO SD       N/A     48  32  53 SW21      29.65R
RAPID CITY     CLEAR     58  28  32 W23G29    29.76S
$$

REGIONAL REPORTS...WYOMING/IDAHO/WASHINGTON

CITY           SKY/WX    TMP DP  RH WIND       PRES   REMARKS
GILLETTE       CLEAR     47  32  56 SW32G47   29.77S
SHERIDAN       PTCLDY    53  27  36 SW28G35   29.74S
BUFFALO WY     CLEAR     49  26  41 S6        29.79R
CODY           CLOUDY    46  30  53 NW8       29.78S
YELLOWSTONE LA   N/A     30  30 100 VRB3      29.89R
IDAHO FALLS    RAIN      38  38 100 S14       29.90F WCI  30
SALMON         CLOUDY    37  36  93 S3        29.74F
BOISE          CLOUDY    46  41  82 SE18      29.78F
SPOKANE        CLOUDY    34  32  92 CALM      29.70F
$$

REGIONAL REPORTS...ALBERTA

CITY           SKY/WX    TMP DP  RH WIND       PRES   REMARKS
EDMONTON       CLOUDY    30  27  86 N2        29.63S
CALGARY        MOCLDY    30  28  93 N3        29.56S FOG
LETHBRIDGE     CLEAR     28 N/A N/A W8        29.58R WCI  20
MEDICINE HAT   MOCLDY    32  30  93 N8        29.55R WCI  25
CARDSTON         N/A     30  28  93 NW5         N/A
MILK RIVER       N/A     37  30  75 W15G21      N/A  WCI  28
ONEFOUR          N/A     36  28  75 SW7         N/A  WCI  30
$$

REGIONAL REPORTS...SASKATCHEWAN

CITY           SKY/WX    TMP DP  RH WIND       PRES   REMARKS
SWIFT CURRENT  CLOUDY    32  30  93 SE7       29.57R WCI  26
REGINA         CLOUDY    32  30  93 E6        29.62S WCI  26
SASKATOON      CLOUDY    34  28  80 NW3       29.66S
CYPRESS HILLS    N/A     36  27  69 W8          N/A  WCI  29
ROCKGLEN         N/A     30  25  80 SW5         N/A
ASSINIBOIA       N/A     30  28  93 NE2         N/A
$$




USA.gov is the U.S. government's official web portal to all federal, state and local government web resources and services.